Regional Weather Roundup
Issued by NWS Jackson, KY

Home | Current Version | Previous Version | Graphics & Text | Print | Product List | Glossary On
Versions: 1 2 3 4 5 6 7 8 9 10 11 12 13 14 15 16 17 18 19 20 21 22 23 24 25 26 27 28 29 30 31 32 33 34 35 36 37 38 39 40 41 42 43 44 45 46 47 48 49 50
180
ASUS43 KJKL 251710
RWRJKL

EAST KENTUCKY HOURLY WEATHER ROUNDUP
NATIONAL WEATHER SERVICE JACKSON KY
100 PM EDT THU AUG 25 2016

NOTE: "FAIR" INDICATES FEW OR NO CLOUDS BELOW 12,000 FEET WITH
NO SIGNIFICANT WEATHER AND/OR OBSTRUCTIONS TO VISIBILITY.

* THESE REPORTS ARE NOT UNDER NWS QUALITY CONTROL AND MAY NOT
  REPORT WEATHER SUCH AS PRECIPITATION AND FOG.

KYZ079-080-083-085-087-088-110-112-115-119-120-251800
...EASTERN KENTUCKY...

CITY           SKY/WX    TMP DP  RH WIND       PRES   REMARKS
JACKSON        MOSUNNY   86  74  67 VRB3      30.18F HX  94
LONDON         PTSUNNY   87  71  58 SW7       30.18F HX  93
SOMERSET*      SUNNY     84  72  65 W6        30.18F
MONTICELLO*      N/A    N/A N/A N/A W10       30.19F
WILLIAMSBURG*  MOSUNNY   84  75  74 SW5       30.19F HX  92
MIDDLESBORO*   MOSUNNY   86  74  66 CALM      30.19F HX  94
HARLAN APT*    PTSUNNY   86  68  54 CALM      30.21F
PIKE CO APT*   PTSUNNY   83  74  74 W5        30.19S
BIG SANDY APT* PTSUNNY   84  74  71 W6        30.17S HX  91
MOREHEAD APT*  MOSUNNY   86  73  66 SW7G15    30.15F HX  93
ASHLAND*       CLOUDY    88  75  66 W8        30.09  HX  97
$$

KYZ035-036-041-042-044-050-067-078-099-251800
...CENTRAL KENTUCKY...

CITY           SKY/WX    TMP DP  RH WIND       PRES   REMARKS
MT STERLING*   PTSUNNY  N/A N/A N/A W9        30.16S
FLEMING/MASON* PTSUNNY   88  75  64 S12G17    30.13S HX  98
DANVILLE*      MOSUNNY   86  72  62 W8        30.16S HX  92
LEXINGTON      MOSUNNY   89  72  56 SW10      30.14S HX  96
FRANKFORT      SUNNY     89  71  55 W13       30.11S HX  95
LOUISVILLE     MOSUNNY   91  71  51 SW15      30.10S HX  97
LEBANON*         N/A     90  73  58 SW7G16    30.14F HX  98
GLASGOW*       CLOUDY    87  74  66 SW7       30.14F HX  95
BOWLING GREEN  MOSUNNY   90  74  59 W10       30.13F HX  99
$$

KYZ091>093-OHZ055-061-077-WVZ005-015-034-035-042-251800
...SOUTHERN OHIO/WEST VIRGINIA...

CITY           SKY/WX    TMP DP  RH WIND       PRES   REMARKS
COVINGTON      MOSUNNY   86  77  74 W10       30.10S HX  97
COLUMBUS       MOSUNNY   84  74  71 SW12      30.07R HX  91
DAYTON         MOSUNNY   85  75  72 S14       30.08F HX  93
WILMINGTON     CLOUDY    83  76  79 SW12      30.10R HX  91
HUNTINGTON     MOSUNNY   88  73  61 SW12      30.12S HX  95
CHARLESTON     CLOUDY    85  73  67 VRB5      30.13F HX  91
PINEVILLE*     PTSUNNY   83  69  63 MISG      30.25F
BECKLEY        CLOUDY    79  70  74 W8        30.24F
BLUEFIELD      PTSUNNY   77  68  73 VRB5      30.27F
LOGAN CO APT*    N/A     82  75  78 CALM      30.18F
$$

VAZ002-007-008-TNZ017-027-036-066-071-251800
...SOUTHWEST VIRGINIA/EAST TENNESSEE...

CITY           SKY/WX    TMP DP  RH WIND       PRES   REMARKS
WISE*          PTSUNNY   81  63  54 W7        30.29S
JONESVILLE*      N/A     84  72  65 SW8       30.23F
ABINGDON*      CLOUDY    81  72  73 SW8       30.26S
BRISTOL        PTSUNNY   83  71  67 SW7       30.23S
MORRISTOWN*    MOSUNNY   86  72  62 SW7       30.21S HX  92
KNOXVILLE      MOSUNNY   87  69  54 SW7G18    30.18F HX  91
OAK RIDGE      SUNNY     87  71  58 VRB6      30.20F HX  93
CROSSVILLE     MOSUNNY   85  71  63 W9        30.24F HX  90
NASHVILLE      PTSUNNY   92  72  51 SW7       30.15F HX  99
$$

...KEY TO REMARKS...
VSB - VISIBILITY IN MILES
WCI - WIND CHILL INDEX
HX  - HEAT INDEX

$$




USA.gov is the U.S. government's official web portal to all federal, state and local government web resources and services.